Vertical_Velocity
3 -9 -15 7 3 -1 2 -6 -4 1 -2 -3 -1 4 -23 -15 -21 -33 1 1 3 3 -3 4 5 2 2 2 1 1 1 3 1 0 -0 0 0 -3 -0 1 -0 -0 -0 1
9 7 8 1 5 -0 2 -3 1 1 2 5 1 0 -7 -4 1 -5 -11 2 2 -1 1 1 4 1 -0 0 -0 -0 -0 -0 -0 -1 -2 -1 0 -0 -1 0 0 -1 0 1
2 -14 -11 0 5 -1 4 -3 -5 -7 -3 -1 1 -5 -2 -9 -3 -10 -22 1 -2 -1 -3 1 2 4 2 -2 -4 -3 -1 -2 -2 -3 -3 -2 -1 -1 -0 1 -0 0 0 0
2 13 2 1 3 -3 -4 -1 4 0 -1 -7 -0 -6 -8 5 -5 -4 -11 -20 2 1 2 -2 -2 -0 -1 -1 -1 -2 -2 -2 -3 -1 -2 -1 -2 -1 -1 -1 -1 -1 -0 -1
3 -16 -2 3 -5 1 -4 0 4 1 5 2 5 1 -13 4 -11 -13 3 1 -6 -1 0 -3 0 1 -1 -2 -1 0 1 -0 -0 1 -1 -1 -2 -1 -1 -2 -2 -1 -1 0
-1 -3 6 -0 4 -4 -0 -3 2 6 1 2 -1 -0 -10 -2 -4 7 2 -9 -28 -3 -6 0 6 0 -1 -2 -1 1 2 1 1 0 0 -0 -1 -1 -1 -0 -0 -0 0 0
3 -3 1 1 -2 12 3 4 0 0 2 -4 -1 8 -32 -6 -2 4 2 3 -3 -12 4 -2 -0 3 3 2 3 3 2 0 -0 -0 1 1 1 -0 -1 -0 -0 -0 -0 0
-2 7 7 -7 3 -3 3 1 -6 -4 -1 -2 2 -4 -23 -2 2 4 4 8 4 -4 -6 -4 1 -1 -1 1 1 0 1 0 0 -1 -1 -1 -0 -0 -0 -0 0 0 1 2
1 1 10 1 3 3 -1 4 -0 -4 0 -1 2 -0 -13 -0 -1 2 3 4 5 1 1 -1 3 1 1 2 1 0 -0 -0 -1 -1 -1 -1 0 -0 0 0 0 -1 -1 -0
2 -2 3 3 2 3 -1 0 -1 -1 -3 -0 -2 -3 -7 9 3 -1 -4 -3 3 2 -1 -1 -1 7 3 1 1 -0 1 1 -0 -3 -2 -2 -2 -2 -2 -2 -2 -2 -1 -1
1 -0 4 2 3 -6 -5 -2 -0 -2 -0 -2 -1 -5 0 -1 0 -2 4 -1 -1 4 3 2 5 3 3 3 3 1 -1 -2 -1 1 1 -1 0 -1 -1 -1 -2 -1 -2 -1
-9 -2 -1 2 -2 -0 1 2 6 2 -2 0 -0 -21 1 1 2 -3 -6 5 2 -0 -0 -1 4 2 -0 0 1 1 -1 -0 -1 -1 -0 -1 -2 -2 -2 -0 -0 -0 -0 -1
0 3 -2 0 1 -5 -3 -4 -3 -1 -0 -4 -0 -8 0 7 3 -2 -7 1 -3 -3 -2 -3 1 1 0 -1 -2 -1 -1 1 1 -1 0 -1 -2 -2 -1 -1 -1 -1 -1 -0
4 -1 -1 -10 -3 -0 -6 -4 -2 1 4 -5 -13 -12 -17 -3 -5 -1 5 2 6 -0 -1 3 1 0 0 2 2 0 1 -1 -0 -1 0 0 0 -2 -1 -0 -2 -1 -1 -0
1 -1 1 3 3 2 -0 -2 2 -2 4 -9 1 -8 -12 1 4 -4 -7 3 -2 -1 1 3 4 4 -1 0 -2 -2 -0 -0 -3 1 -2 0 1 -0 -2 1 -0 1 -3 -1
-2 2 1 0 0 -1 -3 -4 -1 -0 -0 -3 1 -47 13 7 -1 -3 -0 -0 -1 2 4 5 3 -2 -6 -1 -1 -2 -2 3 -2 3 -0 -1 -2 5 -3 -1 2 -1 -1 0
-1 -3 -1 -0 2 2 -8 -4 0 4 1 10 -9 -11 -2 -3 5 5 4 0 -2 -2 -1 -1 4 4 -0 1 -3 -2 -4 2 -2 2 -1 -1 1 -0 2 -3 0 1 2 -0
-0 1 1 -0 -0 -4 -1 -0 -2 -3 -1 2 -6 4 4 -1 -3 -4 -0 0 3 -1 1 -1 -1 2 -0 0 4 -2 0 -1 1 1 -2 -2 -1 1 2 2 1 -1 2 1
2 -1 -2 0 -1 -5 -5 -2 -1 -2 -1 -1 -3 -2 -2 -0 -2 -7 -2 -1 3 -1 2 1 -2 -0 -0 -2 -2 1 1 -3 1 -3 -5 1 2 1 -0 1 1 -1 0 2
2 2 -2 0 0 -1 -0 -1 -2 -1 -3 -1 0 0 -1 -1 -8 14 0 -0 1 4 4 2 2 -1 2 3 2 1 -2 -3 -4 -3 -2 -1 3 0 0 2 -1 -0 0 2
-1 -1 -3 -1 -2 -10 1 3 2 0 -0 -2 -1 -1 -1 -0 -3 -2 1 0 3 2 2 2 1 -1 -2 -1 -2 -2 -1 0 1 2 1 0 -0 0 1 -1 1 1 0 1
-1 -2 -3 4 1 -10 -1 1 0 1 1 -0 -2 -1 -4 -1 0 0 0 1 3 2 1 1 0 -1 0 1 1 1 1 1 1 1 1 -0 -1 1 -0 1 -0 -1 -0 2
-6 -6 -4 -6 -4 -1 -1 -1 1 3 2 1 -1 -1 -2 0 0 1 1 -0 1 1 2 1 -3 0 1 1 2 1 -1 -1 -1 0 0 0 1 1 1 1 2 -0 -0 -0
-3 2 -5 0 2 -1 -1 -0 -3 -2 1 2 1 -2 -1 -0 1 0 -0 -1 -3 -1 1 -1 2 -1 -0 0 1 0 1 1 1 1 0 -0 -0 0 1 1 0 -0 -1 1
5 2 2 -8 2 -1 3 -2 1 -1 -2 1 2 2 -4 2 2 -1 -2 3 -3 -2 -3 -2 -2 1 1 2 2 -0 1 1 0 -2 -1 -1 -0 1 -0 -0 2 2 1 2
4 -1 -2 -8 5 -2 5 -1 -1 2 1 -3 -0 2 3 -0 -1 1 2 0 0 0 1 0 2 2 1 3 2 0 1 -1 -0 -1 -2 -0 1 1 1 1 1 1 -0 1
Height
3051 3058 3061 3067 3075 3079 3084 3089 3095 3100 3104 3108 3109 3113 3114 3119 3122 3125 3129 3132 3137 3140 3144 3149 3154 3158 3161 3164 3166 3169 3171 3172 3174 3175 3177 3178 3179 3180 3180 3180 3180 3180 3179 3179
3053 3054 3062 3070 3077 3081 3084 3090 3095 3100 3104 3107 3109 3110 3111 3113 3115 3118 3123 3126 3132 3134 3140 3144 3149 3153 3156 3159 3162 3164 3166 3167 3168 3169 3171 3172 3173 3174 3174 3174 3174 3173 3173 3173
3053 3055 3061 3069 3075 3080 3085 3089 3093 3099 3103 3107 3108 3107 3106 3106 3109 3111 3118 3121 3126 3128 3134 3139 3144 3148 3151 3154 3156 3158 3160 3161 3163 3164 3165 3165 3166 3167 3167 3167 3166 3166 3165 3165
3055 3056 3059 3067 3075 3081 3085 3089 3094 3098 3100 3103 3106 3102 3098 3101 3103 3104 3108 3117 3120 3122 3128 3134 3138 3142 3145 3148 3150 3152 3153 3155 3156 3157 3158 3158 3159 3159 3159 3159 3158 3158 3158 3158
3055 3059 3060 3068 3076 3082 3085 3089 3093 3097 3100 3102 3102 3105 3092 3095 3095 3096 3101 3110 3117 3119 3123 3127 3132 3136 3138 3141 3144 3145 3147 3148 3149 3150 3151 3151 3152 3152 3152 3152 3151 3150 3149 3149
3054 3059 3063 3070 3077 3081 3085 3089 3094 3097 3099 3098 3097 3101 3086 3088 3090 3096 3102 3106 3107 3112 3118 3122 3125 3129 3132 3135 3137 3139 3140 3141 3142 3143 3143 3144 3144 3144 3144 3144 3143 3142 3141 3141
3057 3062 3064 3069 3076 3080 3083 3087 3094 3099 3099 3096 3093 3096 3090 3090 3091 3094 3098 3100 3103 3107 3111 3114 3118 3123 3127 3129 3131 3133 3134 3134 3135 3135 3136 3136 3136 3136 3136 3136 3136 3135 3134 3133
3057 3066 3065 3069 3073 3077 3082 3085 3085 3090 3093 3092 3093 3092 3087 3087 3088 3090 3093 3094 3096 3100 3104 3108 3112 3117 3120 3123 3125 3126 3127 3127 3127 3127 3127 3128 3128 3128 3128 3128 3128 3128 3127 3126
3057 3061 3064 3070 3074 3079 3081 3083 3086 3086 3090 3091 3087 3087 3087 3086 3088 3087 3087 3088 3091 3093 3096 3099 3105 3110 3113 3116 3117 3118 3119 3120 3120 3120 3120 3120 3120 3120 3120 3121 3121 3120 3120 3119
3055 3061 3065 3069 3074 3078 3079 3084 3086 3086 3091 3092 3086 3085 3082 3085 3086 3084 3082 3082 3084 3087 3091 3094 3098 3102 3106 3108 3110 3112 3112 3113 3113 3113 3114 3114 3114 3113 3113 3113 3113 3113 3112 3112
3056 3060 3067 3071 3073 3075 3079 3080 3083 3085 3086 3085 3088 3083 3081 3082 3081 3079 3077 3077 3079 3083 3085 3089 3092 3095 3099 3101 3103 3104 3105 3106 3107 3107 3107 3107 3107 3106 3106 3106 3106 3105 3104 3104
3057 3060 3066 3069 3071 3073 3075 3077 3080 3081 3083 3083 3084 3081 3080 3080 3081 3079 3078 3076 3077 3080 3082 3084 3087 3091 3094 3095 3096 3098 3100 3101 3102 3101 3101 3101 3100 3100 3099 3098 3098 3097 3097 3096
3059 3062 3066 3070 3073 3070 3071 3073 3076 3079 3079 3076 3080 3075 3074 3076 3077 3078 3079 3079 3078 3079 3081 3083 3085 3087 3089 3091 3092 3093 3094 3095 3095 3095 3094 3094 3093 3092 3092 3090 3090 3089 3089 3088
3058 3059 3060 3062 3061 3063 3065 3067 3071 3074 3073 3072 3063 3069 3073 3073 3073 3075 3076 3078 3078 3079 3081 3081 3082 3083 3084 3086 3087 3088 3089 3089 3089 3088 3087 3087 3085 3085 3084 3083 3082 3081 3081 3082
3057 3056 3058 3059 3060 3060 3062 3063 3064 3063 3066 3065 3063 3061 3065 3069 3070 3070 3071 3073 3075 3076 3078 3078 3079 3078 3080 3082 3083 3083 3083 3082 3082 3081 3080 3079 3078 3077 3076 3075 3075 3074 3075 3075
3055 3057 3056 3056 3056 3057 3057 3058 3058 3058 3060 3056 3058 3048 3060 3062 3062 3064 3066 3068 3069 3072 3072 3073 3073 3074 3076 3077 3078 3078 3078 3077 3076 3075 3073 3072 3072 3071 3069 3068 3068 3069 3068 3069
3053 3054 3055 3054 3053 3053 3053 3050 3051 3051 3050 3051 3050 3045 3053 3054 3055 3057 3059 3061 3062 3065 3066 3068 3069 3070 3071 3072 3073 3072 3073 3072 3070 3068 3066 3066 3065 3064 3063 3063 3063 3063 3062 3063
3050 3052 3054 3053 3052 3053 3046 3045 3046 3045 3045 3045 3043 3043 3045 3047 3048 3049 3052 3053 3055 3057 3060 3063 3064 3066 3067 3067 3067 3067 3067 3066 3063 3061 3060 3060 3059 3058 3058 3056 3056 3057 3057 3058
3048 3049 3051 3052 3051 3046 3043 3042 3042 3042 3041 3040 3039 3040 3040 3041 3039 3041 3045 3048 3051 3053 3055 3058 3059 3061 3061 3062 3062 3061 3061 3060 3058 3056 3056 3055 3054 3052 3052 3051 3051 3052 3052 3053
3046 3047 3050 3050 3050 3046 3040 3039 3039 3039 3038 3037 3037 3037 3036 3035 3033 3038 3039 3041 3045 3048 3050 3052 3054 3056 3056 3057 3056 3056 3055 3054 3053 3053 3052 3050 3047 3046 3046 3046 3047 3047 3049 3050
3044 3045 3045 3047 3047 3041 3038 3038 3037 3039 3041 3035 3035 3033 3032 3031 3030 3031 3033 3035 3038 3042 3045 3047 3049 3050 3051 3051 3051 3051 3050 3049 3048 3048 3047 3045 3043 3042 3041 3043 3043 3044 3045 3047
3040 3041 3041 3043 3044 3040 3035 3036 3037 3035 3033 3032 3031 3030 3028 3027 3027 3028 3030 3032 3035 3038 3040 3042 3044 3044 3045 3045 3046 3047 3046 3045 3044 3043 3042 3041 3040 3039 3038 3039 3040 3042 3044 3045
3037 3036 3037 3038 3035 3034 3034 3034 3034 3032 3031 3029 3028 3027 3026 3026 3026 3027 3028 3030 3033 3035 3036 3037 3038 3039 3039 3040 3040 3041 3041 3040 3040 3039 3038 3038 3038 3036 3036 3037 3039 3040 3041 3043
3030 3032 3031 3033 3031 3030 3031 3031 3030 3029 3028 3027 3025 3024 3024 3025 3025 3025 3026 3027 3029 3031 3032 3032 3033 3033 3034 3034 3035 3036 3036 3036 3036 3035 3034 3034 3034 3034 3034 3035 3036 3037 3038 3039
3029 3028 3026 3026 3026 3026 3026 3025 3025 3025 3024 3024 3023 3023 3022 3022 3023 3023 3024 3025 3026 3027 3027 3027 3028 3028 3028 3029 3030 3030 3031 3031 3031 3031 3030 3030 3030 3030 3031 3031 3032 3033 3035 3035
3024 3023 3022 3020 3021 3020 3020 3020 3020 3020 3020 3020 3020 3020 3020 3019 3020 3020 3021 3022 3022 3022 3022 3022 3022 3023 3023 3022 3022 3024 3025 3026 3026 3026 3026 3026 3025 3026 3026 3027 3028 3029 3029 3030